Submittal Forms
Current Contests
Recent Contests

Club Activity Tracker - Interest Group RTTY (from club selection on form)

Recent postings for the selected club or group are listed below. Other than the call used, all calls listed are only those associated with the club or group. Click on a call to see the details of the posting.
Status Key: new=new posting, update=update prior posting, move=change club/group, delete=delete prior posting.

Sort by   for past

TimestampCallContestClassPowerScoreStatus
2024-05-13 14:32:07DL1ZBOVolta RTTYSOABLP4,942,080new9441
2024-05-12 20:36:52OZ9GAVolta RTTYSOABLP1,423,766new9441
2024-05-12 15:16:32G0FGIVolta RTTYSOABLP12,767,832new9441
2024-05-12 13:57:26DJ1OJVolta RTTYSOABLP1,824,768new9441
2024-05-12 13:41:14PA4OVolta RTTYSOABLP60,273,954new9441
2024-05-12 12:05:10DL1DTLVolta RTTYSOAB-6LP4,014,720new9441
2024-05-06 17:07:56SP4NKJARISO RTTYLP256,200new9421
2024-05-06 14:51:43W9ILYARISO RTTYHP35,632new9421
2024-05-05 12:15:29II1R(IW1CBG)ARISO RTTYLP33,026new9421
2024-05-05 10:18:20DJ1OJARISO RTTYLP2,208new9421
 
2024-04-29 20:37:44W9ILYBARTG 75 AprilSO ExpertHP2,970new9399
2024-04-29 20:31:10W9ILYSPDX RTTYSOABHP680,640new9394
2024-04-29 19:47:55SP4NKJSPDX RTTYSOABQRP1,301,877new9394
2024-04-29 18:48:42SP4NKJBARTG 75 AprilSingle OpQRP369new9399
2024-04-29 18:24:16PA4OSPDX RTTYSOABLP4,756,338new9394
2024-04-29 16:55:16G0FGISPDX RTTYSOABLP1,647,432new9394
2024-04-28 16:08:38F4DSKSPDX RTTYSOABLP68,040new9394
2024-04-28 15:48:54WM5DXSPDX RTTYSOABHP106,050new9394
2024-04-28 13:08:00DL1DTLSPDX RTTYSOABLP214,590new9394
2024-04-28 12:27:08GU0SUPSPDX RTTYSOABLP974,400new9394
 
2024-04-28 12:11:02M3AWDSPDX RTTYSOABLP239,850new9394
2024-04-28 12:08:00M3AWDUK/EI DX CWSO(A)12LP33,948new